Location: Newark
(55.7083°N, 13.1992°E)
Time: 09:29:10
(UTC+00:00)

Transit 4A - Pass Details

Date: 25 February 2020
Orbit: 871 x 973 km, 66.8° (Epoch: 07 April)

Event Time Altitude Azimuth Distance (km) Brightness Sun altitude
Exits shadow 00:29:43 21° 37° (NE) 1,862 9.9 -41.7°
Drops below altitude 10° 00:31:36 10° 42° (NE) 2,531 10.8 -41.6°
Sets 00:34:08 0° 46° (NE) 3,474 11.6 -41.4°
